This is the latest recevied weather packets stored in our database for station/object KR4CWL-13. If no packets are shown the sender has not sent any weather packets the latest 10 day(s).
| Time | Temp. | Humidity | Pressure | Rain* | Wind** | Luminosity | Snow |
|---|---|---|---|---|---|---|---|
| 1777694035 | 10.56° C | 99% | 1005.4 hPa | 0 mm | - | - | - |
| 1777693435 | 10.56° C | 99% | 1005.4 hPa | 0 mm | - | - | - |
| 1777692835 | 10.56° C | 99% | 1005.8 hPa | 0 mm | - | - | - |
| 1777692235 | 10.56° C | 99% | 1006.1 hPa | 0 mm | - | - | - |
| 1777691635 | 10.56° C | 99% | 1006.1 hPa | 0 mm | - | - | - |
| 1777691035 | 10.56° C | 98% | 1006.1 hPa | 0 mm | - | - | - |
| 1777690435 | 10.56° C | 98% | 1006.1 hPa | 0 mm | - | - | - |
| 1777689835 | 10.56° C | 98% | 1006.1 hPa | 0 mm | - | - | - |
| 1777689235 | 10.56° C | 98% | 1006.1 hPa | 0 mm | - | - | - |
| 1777688635 | 10.56° C | 98% | 1006.1 hPa | 0 mm | - | - | - |
| 1777688035 | 10.56° C | 98% | 1006.1 hPa | 0 mm | - | - | - |
| 1777687435 | 11.11° C | 97% | 1006.1 hPa | 0 mm | - | - | - |
| 1777686835 | 11.11° C | 97% | 1005.8 hPa | 0 mm | - | - | - |
| 1777686235 | 11.11° C | 93% | 1006.1 hPa | 0 mm | - | - | - |
| 1777685635 | 11.11° C | 94% | 1006.1 hPa | 0 mm | - | - | - |
| 1777685035 | 11.11° C | 95% | 1005.8 hPa | 0 mm | - | - | - |
| 1777684435 | 11.67° C | 93% | 1005.8 hPa | 0 mm | - | - | - |
| 1777683835 | 11.67° C | 93% | 1005.8 hPa | 0 mm | - | - | - |
| 1777683235 | 11.67° C | 92% | 1005.4 hPa | 0 mm | - | - | - |
| 1777682635 | 11.67° C | 90% | 1005.1 hPa | 0 mm | - | - | - |
| 1777682035 | 12.22° C | 90% | 1005.1 hPa | 0 mm | - | - | - |
| 1777681435 | 12.22° C | 87% | 1005.1 hPa | 0 mm | - | - | - |
| 1777680834 | 12.22° C | 87% | 1005.1 hPa | 0 mm | - | - | - |
| 1777680234 | 12.78° C | 87% | 1004.7 hPa | 0 mm | - | - | - |
| 1777679635 | 12.78° C | 85% | 1005.1 hPa | 0 mm | - | - | - |
* Rain since midnight (hover to see other rain measurements)
** Current wind speed in m/s (hover to see current wind gust speed)